Torna al catalogo

QIANFAN-121

AttivoComunicazioniPO
NORAD 68648·PAYLOAD·🇨🇳 China

Lanciato Apr 7, 2026 da Wenchang Space Launch Site

Loading…

Prossimi Passaggi (prossime 24 ore)

TLE

AggiornatoSource: Space-Track

Epoca: Sep 14, 2026, 21:27 UTC

1 68648U 26075N   26257.89427349  .00000064  00000-0  80262-4 0  9992
2 68648  88.9874 311.8406 0002253  99.3783 260.7623 13.51023490 21920

Traccia QIANFAN-121 in tempo reale con AllMySat

Download on the App Store